Location: Mannheim
(49.4880°N, 8.4650°E)
Time: 06:23:04
(UTC+02:00)

ISS - Pass Details

Date: 10 July 2024
Orbit: 409 x 423 km, 51.6° (Epoch: 24 July)

Event Time Altitude Azimuth Distance (km) Brightness Sun altitude
Rises 22:59:25 0° 234° (SW) 2,329 0.0 -10.8°
Reaches altitude 10° 23:01:31 10° 230° (SW) 1,471 -1.0 -11.0°
Maximum altitude 23:04:44 52° 153° (SSE) 519 -3.7 -11.3°
Drops below altitude 10° 23:07:58 10° 76° (ENE) 1,480 -1.2 -11.6°
Sets 23:10:05 0° 71° (ENE) 2,346 -0.1 -11.8°
